Flag for U.S.A. Weather past 2 weeks in Daytona Beach, Florida, U.S.A.

Now
90 °F

Scattered clouds.


Feels Like: 96 °F
Forecast: 74 / 88 °F
Wind: 9 mph from East

Location: Daytona Beach Regional Airport

Current Time: Jul 29, 2015 at 4:56:30 PM

Latest Report: Jul 29, 2015 at 3:53 PM


Visibility: 10 mi

Pressure: 29.94 "Hg

Humidity: 54%

Dew point: 71 °F

Location of Daytona BeachLocation

Historic Weather in Daytona Beach — Graph

°F

Daytona Beach temperature yesterday

Maximum temperature yesterday: 83 °F (at 1:53 PM)
Minimum temperature yesterday: 76 °F (at 1:53 AM)
Average temperature yesterday: 79 °F

Past Weeks' High & Low Weather Summary

 TemperatureHumidityPressure
High93 °F (Jul 19, 3:53 PM)97% (Jul 17, 4:53 AM)30.05 "Hg (Jul 17, 4:53 AM)
Low74 °F (Jul 17, 4:53 AM)48% (Jul 29, 2:53 PM)29.83 "Hg (Jul 26, 4:53 AM)
Average81 °F82%29.96 "Hg
* Reported Jul 14 2:53 PM — Jul 29 2:53 PM, Daytona Beach, Weather by CustomWeather, © 2015

Note: Actual official high and low records may vary slightly from our data, if they occured in-between our weather recording intervals... More about our weather records

Advertising

Daytona Beach weather history for previous 24 hours

 ConditionsComfort  
Time TempWeatherWind HumidityBarometerVisibility
2:53 PM
Wed, Jul 29
90 °FScattered clouds.10 mph48%29.95 "Hg10 mi
1:53 PM91 °FScattered clouds.15 mph56%29.95 "Hg10 mi
12:53 PM90 °FScattered clouds.6 mph61%29.97 "Hg10 mi
11:53 AM89 °FScattered clouds.7 mph59%29.97 "Hg10 mi
10:53 AM88 °FScattered clouds.9 mph63%29.98 "Hg10 mi
9:53 AM84 °FScattered clouds.12 mph77%29.97 "Hg10 mi
8:53 AM81 °FScattered clouds.5 mph85%29.95 "Hg10 mi
7:53 AM76 °FPartly sunny.6 mph97%29.94 "Hg8 mi
6:53 AM75 °FFog.6 mph96%29.94 "Hg4 mi
5:53 AM75 °FPassing clouds.3 mph96%29.93 "Hg8 mi
4:53 AM76 °FFog.7 mph97%29.93 "Hg4 mi
3:53 AM76 °FPassing clouds.6 mph97%29.93 "Hg8 mi
2:53 AM76 °FPassing clouds.5 mph97%29.93 "Hg9 mi
1:53 AM76 °FPassing clouds.5 mph97%29.94 "Hg9 mi
12:53 AM77 °FPassing clouds.5 mph96%29.95 "Hg9 mi
11:53 PM
Tue, Jul 28
77 °FPassing clouds.8 mph94%29.96 "Hg10 mi
10:53 PM78 °FPartly cloudy.7 mph93%29.97 "Hg10 mi
9:53 PM79 °FPartly cloudy.8 mph94%29.95 "Hg10 mi
8:53 PM79 °FBroken clouds.5 mph94%29.94 "Hg10 mi
7:53 PM81 °FBroken clouds.8 mph82%29.92 "Hg10 mi
6:53 PM82 °FBroken clouds.6 mph82%29.91 "Hg10 mi
5:53 PM82 °FBroken clouds.5 mph85%29.92 "Hg10 mi
4:53 PM78 °FRain. Fog.5 mph93%29.92 "Hg3 mi
Weather by CustomWeather, © 2015

See weather overviewHow to use our weather pages